Location: Unspecified
(0.0000°N, 0.0000°E)
Time: 14:59:38
(UTC+00:00)

S-56A Canister/Altair - Visible Passes

Search period start: 05 July 2015 00:00
Search period end: 15 July 2015 00:00
Orbit: 636 x 2499 km, 38.9° (Epoch: 04 July)

Date Brightness Start Highest point End Pass type
(mag) Time Alt. Az. Time Alt. Az. Time Alt. Az.
05 Jul 10.0 19:42:08 10° NW 19:56:14 68° NE 20:03:13 39° ESE visible
05 Jul 10.5 21:49:10 10° WNW 22:00:41 44° WSW 22:00:41 44° WSW visible
06 Jul 10.1 19:09:31 10° NW 19:22:58 61° NE 19:32:50 26° ESE visible
06 Jul 10.2 21:15:45 10° WNW 21:30:12 53° SW 21:30:18 53° SW visible
07 Jul 10.2 18:37:01 10° NNW 18:49:44 54° NE 19:02:30 15° ESE visible
07 Jul 10.1 20:42:29 10° WNW 20:56:55 60° SW 20:59:58 53° S visible
07 Jul 11.6 22:55:12 10° WSW 22:57:27 13° WSW 22:57:27 13° WSW visible
08 Jul 10.4 18:04:40 10° NNW 18:16:33 47° NE 18:30:52 10° ESE visible
08 Jul 10.1 20:09:25 10° WNW 20:23:38 67° SW 20:29:41 43° SSE visible
08 Jul 11.3 22:20:39 10° W 22:27:10 20° WSW 22:27:10 20° WSW visible
09 Jul 10.0 19:36:30 10° NW 19:50:20 74° SW 19:59:25 31° SE visible
09 Jul 11.0 21:46:26 10° W 21:56:54 26° SW 21:56:54 26° SW visible
10 Jul 10.0 19:03:44 10° NW 19:17:05 82° SW 19:29:10 20° SE visible
10 Jul 10.8 21:12:31 10° W 21:24:57 30° SW 21:26:38 29° SSW visible
11 Jul 10.0 18:31:07 10° NW 18:43:51 89° NE 18:58:55 11° SE visible
11 Jul 10.8 20:38:52 10° W 20:51:35 34° SW 20:56:24 28° S visible
12 Jul 9.1 05:24:17 10° SSW 05:29:46 28° SE 05:34:05 10° E visible
12 Jul 10.7 20:05:27 10° W 20:18:13 38° SW 20:26:09 24° S visible
12 Jul 11.6 22:23:05 10° SW 22:23:38 10° SW 22:23:38 10° SW visible
13 Jul 9.4 04:51:50 10° SSW 04:57:23 25° SSE 05:01:45 10° E visible
13 Jul 10.6 19:32:14 10° WNW 19:44:52 43° SW 19:55:53 17° SSE visible
13 Jul 11.5 21:47:14 10° SW 21:53:22 14° SSW 21:53:22 14° SSW visible
14 Jul 9.7 04:21:27 16° S 04:24:54 22° SSE 04:29:21 10° E visible
14 Jul 10.5 18:59:13 10° WNW 19:11:33 48° SW 19:25:36 10° SSE visible
14 Jul 11.3 21:12:16 10° WSW 21:20:49 16° SSW 21:23:05 15° SSW visible
